User: anonymous   Login
Location: Unspecified
(0.0000°N, 0.0000°E)
Time: 09:42:21
(UTC+00:00)
Language:

FORMOSAT 3E - Orbit

View from above orbital plane
View from above orbital plane
View from above satellite
View from above satellite

Ground track
Ground track

The orbit is defined by the following mean orbital elements,

1 29051U          26103.60744014 +.00000000 +00000-0 +11223-3 0 00000
2 29051  72.0028  73.6816 0066974 204.3143 155.4831 14.31485781    07
Epoch (UTC): 13 April 2026 14:34:42
Eccentricity: 0.0066974
inclination: 72.0028°
perigee height: 739 km
apogee height: 835 km
right ascension of ascending node: 73.6816°
argument of perigee: 204.3143°
revolutions per day: 14.31485781
mean anomaly at epoch: 155.4831°

The dashed part of the orbit path shows where the satellite is in the earth's shadow,  

DLR